GW5622 Weather Reports


time (UTC)temp
C
wind
direction
speed
KPH
gust
KPH
rain 1hr
cm
rain 24hr
cm
rain mn
cm
humidity
%
barometer
mb
20260504024522 15 140 6.4 17.7 0.00 0.00 0.00 34 1002.0
20260504024010 15 195 6.4 20.9 0.00 0.00 0.00 34 1002.0
20260504023508 15 198 8.0 20.9 0.00 0.00 0.00 34 1002.2
20260504023006 15 202 6.4 16.1 0.00 0.00 0.00 34 1002.2
20260504022504 15 200 6.4 16.1 0.00 0.00 0.00 34 1002.3
20260504022006 15 213 4.8 12.9 0.00 0.00 0.00 34 1002.4
20260504021513 15 183 6.4 16.1 0.00 0.00 0.00 33 1002.6
20260504021005 16 178 4.8 19.3 0.00 0.00 0.00 33 1002.6
20260504020506 16 171 9.7 19.3 0.00 0.00 0.00 32 1002.8
20260504020016 16 201 4.8 14.5 0.00 0.00 0.00 33 1002.8
20260504015509 16 182 6.4 14.5 0.00 0.00 0.00 32 1002.9
20260504015010 16 212 8.0 14.5 0.00 0.00 0.00 32 1003.0
20260504014524 16 184 6.4 12.9 0.00 0.00 0.00 31 1003.1
20260504014009 16 202 6.4 12.9 0.00 0.00 0.00 31 1003.3
20260504013508 16 199 8.0 14.5 0.00 0.00 0.00 31 1003.4
20260504013026 16 209 4.8 20.9 0.00 0.00 0.00 31 1003.4
20260504012510 16 194 6.4 20.9 0.00 0.00 0.00 31 1003.5
20260504012005 16 217 4.8 14.5 0.00 0.00 0.00 30 1003.7
20260504011509 17 197 4.8 14.5 0.00 0.00 0.00 30 1003.8
20260504011006 17 208 4.8 11.3 0.00 0.00 0.00 30 1003.9
20260504010505 17 242 4.8 16.1 0.00 0.00 0.00 30 1004.0
20260504010015 17 213 3.2 16.1 0.00 0.00 0.00 30 1004.2
20260504005507 17 207 8.0 14.5 0.00 0.00 0.00 29 1004.3
20260504005007 17 225 4.8 9.7 0.00 0.00 0.00 29 1004.3
20260504004523 17 233 4.8 9.7 0.00 0.00 0.00 29 1004.4
20260504004008 17 236 4.8 9.7 0.00 0.00 0.00 28 1004.5
20260504003508 17 236 4.8 9.7 0.00 0.00 0.00 28 1004.5
20260504003024 17 243 3.2 9.7 0.00 0.00 0.00 29 1004.6
20260504002509 17 244 6.4 17.7 0.00 0.00 0.00 28 1004.6
20260504002009 17 240 6.4 17.7 0.00 0.00 0.00 28 1004.7
20260504001526 17 253 6.4 17.7 0.00 0.00 0.00 28 1004.9
20260504001005 18 229 4.8 17.7 0.00 0.00 0.00 28 1005.0
20260504000508 18 249 6.4 11.3 0.00 0.00 0.00 28 1005.2
20260504000013 18 237 4.8 16.1 0.00 0.00 0.00 27 1005.3
20260503235508 18 253 8.0 19.3 0.00 0.00 0.00 27 1005.4
20260503235008 18 246 6.4 19.3 0.00 0.00 0.00 27 1005.5
20260503234522 18 240 6.4 14.5 0.00 0.00 0.00 27 1005.6
20260503234005 18 226 6.4 14.5 0.00 0.00 0.00 27 1005.6
20260503233508 18 245 4.8 20.9 0.00 0.00 0.00 28 1005.8
20260503233024 18 256 9.7 20.9 0.00 0.00 0.00 27 1005.9
20260503232509 18 255 6.4 20.9 0.00 0.00 0.00 27 1005.9
20260503232008 18 302 9.7 22.5 0.00 0.00 0.00 27 1006.1
20260503231541 18 237 12.9 22.5 0.00 0.00 0.00 27 1006.1
20260503231009 18 283 11.3 22.5 0.00 0.00 0.00 27 1006.1
20260503230505 18 268 12.9 20.9 0.00 0.00 0.00 27 1006.2
20260503230013 18 273 8.0 16.1 0.00 0.00 0.00 28 1006.2
20260503225505 18 233 4.8 19.3 0.00 0.00 0.00 27 1006.1
20260503225009 18 269 6.4 19.3 0.00 0.00 0.00 28 1006.2
20260503224528 18 244 3.2 12.9 0.00 0.00 0.00 27 1006.1
20260503224009 18 254 4.8 22.5 0.00 0.00 0.00 28 1006.3
20260503223510 18 248 9.7 22.5 0.00 0.00 0.00 27 1006.4
20260503223024 18 268 6.4 19.3 0.00 0.00 0.00 28 1006.3
20260503222509 18 229 11.3 19.3 0.00 0.00 0.00 26 1006.5
20260503222012 18 250 9.7 17.7 0.00 0.00 0.00 27 1006.6
20260503221503 18 249 8.0 22.5 0.00 0.00 0.00 27 1006.7
20260503221005 18 317 9.7 22.5 0.00 0.00 0.00 26 1006.7
20260503220506 18 325 12.9 22.5 0.00 0.00 0.00 27 1006.7
20260503220012 18 251 11.3 25.7 0.00 0.00 0.00 27 1006.8
20260503215505 18 312 14.5 25.7 0.00 0.00 0.00 26 1006.9
20260503215006 18 275 11.3 27.4 0.00 0.00 0.00 28 1006.9
20260503214514 18 291 16.1 27.4 0.00 0.00 0.00 27 1007.0
20260503214008 18 302 12.9 20.9 0.00 0.00 0.00 27 1007.0
20260503213509 18 256 9.7 22.5 0.00 0.00 0.00 28 1007.1
20260503213018 18 319 12.9 22.5 0.00 0.00 0.00 27 1007.2
20260503212507 18 270 9.7 14.5 0.00 0.00 0.00 28 1007.2
20260503212007 18 252 6.4 19.3 0.00 0.00 0.00 29 1007.2
20260503211525 18 247 8.0 24.1 0.00 0.00 0.00 28 1007.3
20260503211010 18 277 9.7 24.1 0.00 0.00 0.00 29 1007.3
20260503210506 18 300 11.3 20.9 0.00 0.00 0.00 28 1007.4
20260503210016 18 338 8.0 19.3 0.00 0.00 0.00 29 1007.5
20260503205508 18 318 9.7 19.3 0.00 0.00 0.00 27 1007.6
20260503205007 18 307 1.6 19.3 0.00 0.00 0.00 29 1007.6
20260503204512 18 254 8.0 22.5 0.00 0.00 0.00 29 1007.7
20260503204007 17 309 16.1 24.1 0.00 0.00 0.00 28 1007.8
20260503203507 18 229 11.3 24.1 0.00 0.00 0.00 27 1007.9
20260503203022 18 319 9.7 22.5 0.00 0.00 0.00 29 1008.0
20260503202508 17 330 9.7 24.1 0.00 0.00 0.00 30 1008.1
20260503202011 17 306 16.1 24.1 0.00 0.00 0.00 29 1008.1
20260503201525 17 267 11.3 24.1 0.00 0.00 0.00 28 1008.3
20260503201007 17 294 16.1 22.5 0.00 0.00 0.00 28 1008.4
20260503200509 17 293 8.0 22.5 0.00 0.00 0.00 29 1008.5
20260503200026 17 273 14.5 22.5 0.00 0.00 0.00 29 1008.5
20260503195506 17 288 14.5 22.5 0.00 0.00 0.00 30 1008.7
20260503195005 16 295 12.9 24.1 0.00 0.00 0.00 29 1008.7
20260503194518 16 266 11.3 29.0 0.00 0.00 0.00 28 1008.7
20260503194004 16 279 14.5 29.0 0.00 0.00 0.00 29 1008.8
20260503193506 16 255 12.9 24.1 0.00 0.00 0.00 28 1008.8
20260503193015 16 275 11.3 25.7 0.00 0.00 0.00 29 1008.9
20260503192507 17 287 9.7 25.7 0.00 0.00 0.00 28 1008.9
20260503192006 17 330 14.5 25.7 0.00 0.00 0.00 29 1009.0
20260503191521 16 290 16.1 29.0 0.00 0.00 0.00 29 1009.0
20260503191013 17 281 20.9 29.0 0.00 0.00 0.00 28 1009.1
20260503190509 16 279 11.3 29.0 0.00 0.00 0.00 29 1009.1
20260503190025 16 281 16.1 30.6 0.00 0.00 0.00 30 1009.2
20260503185513 16 254 17.7 30.6 0.00 0.00 0.00 30 1009.1
20260503185006 16 298 12.9 29.0 0.00 0.00 0.00 30 1009.3
20260503184509 16 314 16.1 27.4 0.00 0.00 0.00 31 1009.2
20260503184004 16 262 12.9 24.1 0.00 0.00 0.00 31 1009.3
20260503183504 17 323 6.4 25.7 0.00 0.00 0.00 32 1009.4
20260503183012 17 305 6.4 25.7 0.00 0.00 0.00 28 1009.5
20260503182509 17 322 8.0 25.7 0.00 0.00 0.00 35 1009.6
20260503182009 17 323 4.8 22.5 0.00 0.00 0.00 32 1009.6
20260503181520 16 333 9.7 24.1 0.00 0.00 0.00 31 1009.6
20260503181006 16 301 9.7 24.1 0.00 0.00 0.00 32 1009.7
20260503180512 16 311 8.0 24.1 0.00 0.00 0.00 30 1009.8
20260503180029 16 293 12.9 22.5 0.00 0.00 0.00 30 1009.8
20260503175509 16 287 6.4 22.5 0.00 0.00 0.00 32 1009.9
20260503175010 16 292 11.3 22.5 0.00 0.00 0.00 31 1010.1
20260503174529 16 360 9.7 29.0 0.00 0.00 0.00 30 1010.1
20260503174007 16 342 11.3 29.0 0.00 0.00 0.00 31 1010.3
20260503173504 15 333 9.7 25.7 0.00 0.00 0.00 32 1010.4
20260503173015 15 306 9.7 22.5 0.00 0.00 0.00 31 1010.5
20260503172507 15 329 12.9 25.7 0.00 0.00 0.00 31 1010.7
20260503172007 15 259 9.7 25.7 0.00 0.00 0.00 32 1010.6
20260503171519 15 292 16.1 25.7 0.00 0.00 0.00 32 1010.6
20260503171011 15 295 14.5 25.7 0.00 0.00 0.00 31 1010.9
20260503170509 15 344 9.7 25.7 0.00 0.00 0.00 32 1010.9
20260503151004 12 310 4.8 14.5 0.00 0.00 0.00 38 1011.0
20260503150509 12 309 6.4 20.9 0.00 0.00 0.00 36 1011.1
20260503131010 8 337 6.4 16.1 0.00 0.00 0.00 62 1010.7
20260503130513 8 279 6.4 16.1 0.00 0.00 0.00 63 1010.7
20260503110508 4 296 1.6 4.8 0.00 0.00 0.00 88 1009.5
20260503090509 5 281 0.0 3.2 0.00 0.00 0.00 83 1009.6
20260503081527 6 195 0.0 3.2 0.00 0.00 0.00 80 1009.4
20260503081009 6 195 1.6 3.2 0.00 0.00 0.00 79 1009.4
20260503080508 6 136 0.0 3.2 0.00 0.00 0.00 78 1009.4
20260503072505 7 136 0.0 3.2 0.00 0.00 0.00 74 1009.7
20260503072007 8 136 0.0 0.0 0.00 0.00 0.00 74 1009.7
20260503071519 8 136 0.0 0.0 0.00 0.00 0.00 74 1009.8
20260503071006 8 136 0.0 0.0 0.00 0.00 0.00 74 1009.8
20260503070509 8 136 0.0 0.0 0.00 0.00 0.00 74 1009.8
20260503055008 10 136 0.0 3.2 0.00 0.00 0.00 71 1010.3
20260503054532 10 136 0.0 3.2 0.00 0.00 0.00 70 1010.3
20260503054009 10 136 0.0 3.2 0.00 0.00 0.00 70 1010.3
20260503053508 10 136 0.0 3.2 0.00 0.00 0.00 70 1010.4
20260503053022 10 136 0.0 3.2 0.00 0.00 0.00 71 1010.3
20260503052508 10 136 0.0 3.2 0.00 0.00 0.00 70 1010.3
20260503052007 10 116 0.0 3.2 0.00 0.00 0.00 70 1010.3
20260503051509 10 38 0.0 3.2 0.00 0.00 0.00 69 1010.3
20260503051004 10 38 1.6 3.2 0.00 0.00 0.00 69 1010.3
20260503050503 10 115 1.6 1.6 0.00 0.00 0.00 69 1010.3
20260503050014 10 101 0.0 3.2 0.00 0.00 0.00 68 1010.4
20260503045504 10 101 0.0 3.2 0.00 0.00 0.00 68 1010.4
20260503045005 10 105 0.0 3.2 0.00 0.00 0.00 67 1010.5
20260503044520 10 105 0.0 3.2 0.00 0.00 0.00 67 1010.5
20260503044009 11 105 0.0 3.2 0.00 0.00 0.00 67 1010.4
20260503043513 11 78 0.0 3.2 0.00 0.00 0.00 67 1010.4
20260503043023 11 78 0.0 3.2 0.00 0.00 0.00 66 1010.5
20260503042509 11 96 0.0 3.2 0.00 0.00 0.00 66 1010.5
20260503042010 11 111 0.0 3.2 0.00 0.00 0.00 66 1010.4
20260503041527 11 111 0.0 3.2 0.00 0.00 0.00 65 1010.4
20260503041005 11 111 0.0 3.2 0.00 0.00 0.00 65 1010.5
20260503040504 11 93 0.0 3.2 0.00 0.00 0.00 65 1010.5
20260503040016 11 93 0.0 3.2 0.00 0.00 0.00 65 1010.6
20260503035505 11 84 0.0 3.2 0.00 0.00 0.00 65 1010.6
20260503035006 11 108 0.0 3.2 0.00 0.00 0.00 66 1010.6
20260503034516 11 88 0.0 3.2 0.00 0.00 0.00 65 1010.6
20260503034007 11 71 0.0 3.2 0.00 0.00 0.00 65 1010.7
20260503033507 11 71 0.0 3.2 0.00 0.00 0.00 65 1010.8
20260503033021 11 69 0.0 3.2 0.00 0.00 0.00 65 1010.9
20260503032509 11 69 0.0 3.2 0.00 0.00 0.00 64 1010.9
20260503032010 11 64 0.0 3.2 0.00 0.00 0.00 64 1010.9
20260503031530 11 138 1.6 4.8 0.00 0.00 0.00 64 1010.9
20260503031007 11 140 1.6 4.8 0.00 0.00 0.00 65 1010.9
20260503030509 11 134 1.6 3.2 0.00 0.00 0.00 65 1011.1
20260503030028 11 125 0.0 3.2 0.00 0.00 0.00 65 1011.2
20260503025504 11 141 1.6 3.2 0.00 0.00 0.00 64 1011.4
20260503025007 11 158 1.6 3.2 0.00 0.00 0.00 64 1011.5